Big Bear City, CA

7:38 PM PDT on March 22, 2017 (GMT -0700)
Big Bear City

Weather History for KL35 - November, 2012

Change the Weather History Date:

Saturday, November 24, 2012

  Actual Average (KBUO) Record (KBUO)
Temperature  
Mean Temperature 42 °F -  
Max Temperature 60 °F 64 °F 73 °F (2000)
Min Temperature 23 °F 44 °F 41 °F (2000)
Degree Days  
Heating Degree Days 24    
Moisture  
Dew Point 20 °F    
Average Humidity 49    
Maximum Humidity 80    
Minimum Humidity 25    
Precipitation  
Precipitation 0.00 in - - ()
Sea Level Pressure  
Sea Level Pressure 30.28 in    
Wind  
Wind Speed 1 mph (West)    
Max Wind Speed 9 mph    
Max Gust Speed -    
Visibility 10 miles    
Events      
Averages and records for this station are not official NWS values.
T = Trace of Precipitation, MM = Missing Value Source: NWS Daily Summary

Daily Weather History Graph

Daily Weather History Graph

Search for Another Location

Airport or City:

Trip Planner

Search our weather history database for the weather conditions in past years. The results will help you decide how hot, cold, wet, or windy it might be!

Date:

Astronomy

Nov. 24, 2012 Rise Set
Actual Time 6:29 AM PST 4:38 PM PST
Civil Twilight 6:02 AM PST 5:06 PM PST
Nautical Twilight 5:31 AM PST 5:36 PM PST
Astronomical Twilight 5:01 AM PST 6:06 PM PST
Moon 2:19 PM PST (11/24) 2:58 AM PST (11/24)
Length of Visible Light 11h 03m
Length of Day
10h 09m
Waxing Gibbous, 88% of the Moon is Illuminated
Nov 24
Waxing Gibbous
Nov 28
Full
Dec 6
Last Quarter
Dec 13
New
Dec 19
First Quarter

Hourly Weather History & Observations

Time (PST) Temp. Dew Point Humidity Pressure Visibility Wind Dir Wind Speed Gust Speed Precip Events Conditions
12:15 AM 26.6 °F 12.2 °F 55% 30.36 in 10.0 mi Calm Calm - N/A   Clear
12:35 AM 26.6 °F 12.2 °F 55% 30.36 in 10.0 mi Calm Calm - N/A   Clear
12:55 AM 26.6 °F 14.0 °F 59% 30.35 in 10.0 mi Calm Calm - N/A   Clear
1:15 AM 26.6 °F 12.2 °F 55% 30.35 in 10.0 mi Calm Calm - N/A   Clear
1:35 AM 26.6 °F 12.2 °F 55% 30.35 in 10.0 mi Calm Calm - N/A   Clear
1:55 AM 26.6 °F 12.2 °F 55% 30.35 in 10.0 mi Calm Calm - N/A   Clear
2:15 AM 26.6 °F 12.2 °F 55% 30.35 in 10.0 mi Calm Calm - N/A   Clear
2:35 AM 24.8 °F 12.2 °F 59% 30.34 in 10.0 mi Calm Calm - N/A   Clear
2:55 AM 24.8 °F 10.4 °F 54% 30.34 in 10.0 mi Calm Calm - N/A   Clear
3:15 AM 24.8 °F 10.4 °F 54% 30.34 in 10.0 mi Calm Calm - N/A   Clear
3:35 AM 24.8 °F 10.4 °F 54% 30.33 in 10.0 mi Calm Calm - N/A   Clear
3:55 AM 23.0 °F 10.4 °F 59% 30.33 in 10.0 mi Calm Calm - N/A   Clear
4:15 AM 23.0 °F 10.4 °F 59% 30.33 in 10.0 mi Calm Calm - N/A   Clear
4:35 AM 23.0 °F 12.2 °F 63% 30.33 in 10.0 mi Calm Calm - N/A   Clear
4:55 AM 23.0 °F 10.4 °F 59% 30.34 in 10.0 mi Calm Calm - N/A   Clear
5:15 AM 23.0 °F 10.4 °F 59% 30.34 in 10.0 mi Calm Calm - N/A   Clear
5:35 AM 23.0 °F 10.4 °F 59% 30.34 in 10.0 mi Calm Calm - N/A   Clear
5:55 AM 23.0 °F 10.4 °F 59% 30.34 in 10.0 mi Calm Calm - N/A   Clear
6:15 AM 23.0 °F 10.4 °F 59% 30.34 in 10.0 mi Calm Calm - N/A   Clear
6:35 AM 23.0 °F 10.4 °F 59% 30.34 in 7.0 mi Calm Calm - N/A   Clear
6:55 AM 23.0 °F 10.4 °F 59% 30.34 in 10.0 mi Calm Calm - N/A   Clear
7:15 AM 24.8 °F 10.4 °F 54% 30.34 in 10.0 mi Calm Calm - N/A   Clear
7:35 AM 26.6 °F 10.4 °F 51% 30.34 in 10.0 mi Calm Calm - N/A   Clear
7:55 AM 30.2 °F 12.2 °F 47% 30.35 in 10.0 mi Calm Calm - N/A   Clear
8:15 AM 32.0 °F 14.0 °F 48% 30.34 in 10.0 mi Calm Calm - N/A   Clear
8:35 AM 37.4 °F 17.6 °F 45% 30.34 in 10.0 mi Calm Calm - N/A   Clear
8:55 AM 42.8 °F 17.6 °F 36% 30.34 in 10.0 mi Calm Calm - N/A   Clear
9:15 AM 44.6 °F 17.6 °F 34% 30.34 in 10.0 mi Calm Calm - N/A   Clear
9:35 AM 50.0 °F 17.6 °F 28% 30.34 in 10.0 mi Calm Calm - N/A   Clear
9:55 AM 55.4 °F 23.0 °F 29% 30.33 in 10.0 mi WSW 4.6 mph - N/A   Clear
10:15 AM 57.2 °F 24.8 °F 29% 30.32 in 10.0 mi West 5.8 mph - N/A   Clear
10:35 AM 59.0 °F 24.8 °F 27% 30.31 in 10.0 mi West 5.8 mph - N/A   Clear
10:55 AM 59.0 °F 26.6 °F 29% 30.31 in 10.0 mi West 6.9 mph - N/A   Clear
11:15 AM 59.0 °F 26.6 °F 29% 30.29 in 10.0 mi West 5.8 mph - N/A   Clear
11:35 AM 60.8 °F 24.8 °F 25% 30.28 in 10.0 mi West 6.9 mph - N/A   Clear
11:55 AM 60.8 °F 26.6 °F 27% 30.27 in 10.0 mi West 6.9 mph - N/A   Clear
12:15 PM 60.8 °F 26.6 °F 27% 30.26 in 10.0 mi WSW 8.1 mph - N/A   Clear
12:35 PM 60.8 °F 26.6 °F 27% 30.25 in 10.0 mi West 9.2 mph - N/A   Clear
12:55 PM 60.8 °F 26.6 °F 27% 30.25 in 10.0 mi West 9.2 mph - N/A   Clear
1:15 PM 60.8 °F 26.6 °F 27% 30.24 in 10.0 mi West 9.2 mph - N/A   Clear
1:35 PM 60.8 °F 26.6 °F 27% 30.23 in 10.0 mi West 6.9 mph - N/A   Clear
1:55 PM 59.0 °F 26.6 °F 29% 30.23 in 10.0 mi West 9.2 mph - N/A   Clear
2:15 PM 59.0 °F 26.6 °F 29% 30.23 in 10.0 mi WSW 8.1 mph - N/A   Clear
2:35 PM 59.0 °F 26.6 °F 29% 30.22 in 10.0 mi West 8.1 mph - N/A   Clear
2:55 PM 59.0 °F 24.8 °F 27% 30.22 in 10.0 mi WSW 3.5 mph - N/A   Clear
3:15 PM 59.0 °F 24.8 °F 27% 30.22 in 10.0 mi West 6.9 mph - N/A   Clear
3:35 PM 57.2 °F 24.8 °F 29% 30.22 in 10.0 mi West 8.1 mph - N/A   Clear
3:55 PM 55.4 °F 26.6 °F 33% 30.22 in 10.0 mi West 8.1 mph - N/A   Clear
4:15 PM 53.6 °F 26.6 °F 35% 30.22 in 10.0 mi WSW 4.6 mph - N/A   Clear
4:35 PM 51.8 °F 24.8 °F 35% 30.22 in 10.0 mi Calm Calm - N/A   Clear
4:55 PM 48.2 °F 24.8 °F 40% 30.22 in 10.0 mi Calm Calm - N/A   Clear
5:15 PM 44.6 °F 24.8 °F 46% 30.22 in 10.0 mi Calm Calm - N/A   Clear
5:35 PM 42.8 °F 23.0 °F 46% 30.22 in 10.0 mi Calm Calm - N/A   Clear
5:55 PM 41.0 °F 23.0 °F 49% 30.22 in 10.0 mi Calm Calm - N/A   Clear
6:15 PM 39.2 °F 23.0 °F 52% 30.22 in 10.0 mi Calm Calm - N/A   Clear
6:35 PM 37.4 °F 23.0 °F 56% 30.22 in 10.0 mi Calm Calm - N/A   Clear
6:55 PM 35.6 °F 23.0 °F 60% 30.22 in 10.0 mi Calm Calm - N/A   Clear
7:15 PM 35.6 °F 23.0 °F 60% 30.22 in 10.0 mi Calm Calm - N/A   Clear
7:35 PM 33.8 °F 23.0 °F 65% 30.22 in 10.0 mi Calm Calm - N/A   Clear
7:55 PM 33.8 °F 23.0 °F 65% 30.22 in 10.0 mi Calm Calm - N/A   Clear
8:15 PM 32.0 °F 23.0 °F 69% 30.22 in 10.0 mi Calm Calm - N/A   Clear
8:35 PM 32.0 °F 23.0 °F 69% 30.22 in 10.0 mi Calm Calm - N/A   Clear
8:55 PM 32.0 °F 23.0 °F 69% 30.22 in 10.0 mi Calm Calm - N/A   Clear
9:15 PM 32.0 °F 23.0 °F 69% 30.22 in 10.0 mi Calm Calm - N/A   Clear
9:35 PM 32.0 °F 23.0 °F 69% 30.22 in 10.0 mi Calm Calm - N/A   Clear
9:55 PM 32.0 °F 23.0 °F 69% 30.22 in 5.0 mi Calm Calm - N/A   Haze
10:15 PM 30.2 °F 23.0 °F 75% 30.22 in 7.0 mi Calm Calm - N/A   Clear
10:35 PM 30.2 °F 23.0 °F 75% 30.21 in 10.0 mi Calm Calm - N/A   Clear
10:55 PM 30.2 °F 23.0 °F 75% 30.21 in 10.0 mi Calm Calm - N/A   Clear
11:15 PM 30.2 °F 23.0 °F 75% 30.21 in 7.0 mi Calm Calm - N/A   Clear
11:35 PM 28.4 °F 23.0 °F 80% 30.20 in 5.0 mi Calm Calm - N/A   Haze
11:55 PM 28.4 °F 23.0 °F 80% 30.19 in 7.0 mi Calm Calm - N/A   Clear